{"data":{"norad_id":63942,"epoch":"2026-09-20T08:44:57.528672Z","epoch_age_seconds":158793,"freshness":"FRESH","line1":"1 63942U 25098S   26263.36455473  .00015953  00000+0  55791-3 0  9996","line2":"2 63942  70.0007 141.1892 0004411 263.4174  96.6499 15.29593823 75768","mean_motion":15.29593823,"eccentricity":0.0004411,"inclination_deg":70.0007,"raan_deg":141.1892,"arg_perigee_deg":263.4174,"mean_anomaly_deg":96.6499,"bstar":0.00055791,"rev_number":7576,"period_min":94.142639591452,"perigee_km":474.00179015707,"apogee_km":480.04941460489,"semimajor_km":6855.162602381,"source":"CELESTRAK","updated_at":"2026-09-21T09:00:35.152160Z"}}